Weather History for LIVT - April, 2014

Change the Weather History Date:

Thursday, April 3, 2014

  Actual Average Record
Temperature  
Mean Temperature 57 °F -  
Max Temperature 61 °F 63 °F 68 °F (2002)
Min Temperature 53 °F 51 °F 42 °F (2003)
Degree Days  
Heating Degree Days 8    
Growing Degree Days 7 (Base 50)    
Moisture  
Dew Point 50 °F    
Average Humidity 75    
Maximum Humidity 94    
Minimum Humidity 50    
Precipitation  
Precipitation 0.00 in 0.11 in - ()
Sea Level Pressure  
Sea Level Pressure 29.89 in    
Wind  
Wind Speed 3 mph ()    
Max Wind Speed 7 mph    
Max Gust Speed -    
Visibility 6.8 miles    
Events      
Averages and records for this station are not official NWS values.
T = Trace of Precipitation, MM = Missing Value Source: Averaged Metar Reports

Daily Weather History Graph

Daily Weather History Graph

Search for Another Location

Airport or City:

Trip Planner

Search our weather history database for the weather conditions in past years. The results will help you decide how hot, cold, wet, or windy it might be!

Date:

Astronomy

Apr. 03, 2014 Rise Set
Actual Time 6:41 AM CEST 7:35 PM CEST
Civil Twilight 6:11 AM CEST 8:05 PM CEST
Nautical Twilight 5:35 AM CEST 8:41 PM CEST
Astronomical Twilight 4:58 AM CEST 9:19 PM CEST
Moon 8:48 AM CEST (4/3) 11:49 PM CEST (4/3)
Length of Visible Light 13h 54m
Length of Day
12h 53m
Waxing Crescent, 15% of the Moon is Illuminated
Apr 3
Waxing Crescent
Apr 7
First Quarter
Apr 15
Full
Apr 22
Last Quarter
Apr 29
New

Hourly Weather History & Observations

Time (CEST) Temp. Dew Point Humidity Pressure Visibility Wind Dir Wind Speed Gust Speed Precip Events Conditions
12:00 AM 54 °F 48 °F 75% 29.93 in 6 mi NNE 3.5 mph - -   Scattered Clouds
12:55 AM 55.4 °F 48.2 °F 77% 29.92 in - NE 2.3 mph - N/A   Clear
1:00 AM 55 °F 47 °F 68% 29.93 in 6 mi NE 2.3 mph - -   Partly Cloudy
1:55 AM 53.6 °F 46.4 °F 77% 29.92 in - NE 5.8 mph - N/A   Clear
2:00 AM 54 °F 47 °F 68% 29.92 in 6 mi NE 5.8 mph - -   Partly Cloudy
2:55 AM 55.4 °F 44.6 °F 67% 29.89 in - ENE 6.9 mph - N/A   Clear
3:00 AM 55 °F 44 °F 56% 29.91 in 6 mi ENE 6.9 mph - -   Partly Cloudy
3:55 AM 55.4 °F 42.8 °F 63% 29.89 in - ENE 4.6 mph - N/A   Clear
4:00 AM 56 °F 42 °F 50% 29.91 in 6 mi ENE 4.6 mph - -   Partly Cloudy
4:55 AM 53.6 °F 42.8 °F 67% 29.89 in - NNE 4.6 mph - N/A   Clear
5:00 AM 54 °F 44 °F 59% 29.90 in 6 mi NNE 4.6 mph - -   Scattered Clouds
5:55 AM 53.6 °F 44.6 °F 72% 29.89 in - NE 3.5 mph - N/A   Clear
6:00 AM 54 °F 44 °F 60% 29.90 in 6 mi NE 3.5 mph - -   Scattered Clouds
6:55 AM 53.6 °F 42.8 °F 67% 29.89 in - NE 5.8 mph - N/A   Clear
7:00 AM 54 °F 43 °F 58% 29.90 in 6 mi NE 5.8 mph - -   Mostly Cloudy
7:55 AM 55.4 °F 44.6 °F 67% 29.89 in - ENE 3.5 mph - N/A   Clear
8:00 AM 55 °F 45 °F 59% 29.90 in 12 mi ENE 3.5 mph - -   Mostly Cloudy
9:55 AM 59.0 °F 51.8 °F 77% 29.89 in - NW 2.3 mph - N/A   Clear
10:00 AM 59 °F 51 °F 67% 29.91 in 12 mi NW 2.3 mph - -   Partly Cloudy
10:55 AM 60.8 °F 50.0 °F 68% 29.89 in - NW 1.2 mph - N/A   Clear
11:00 AM 60 °F 50 °F 60% 29.91 in 12 mi NW 1.2 mph - -   Overcast
11:55 AM 59.0 °F 51.8 °F 77% 29.92 in 6.2 mi NW 2.3 mph - N/A   Scattered Clouds
12:00 PM 59 °F 51 °F 69% 29.92 in 12 mi NW 2.3 mph - -   Overcast
12:55 PM 59.0 °F 53.6 °F 82% 29.89 in 6.2 mi NW 2.3 mph - N/A   Partly Cloudy
1:00 PM 60 °F 54 °F 73% 29.91 in 6 mi NW 2.3 mph - -   Overcast
1:55 PM 59.0 °F 55.4 °F 88% 29.89 in 6.2 mi NW 3.5 mph - N/A   Partly Cloudy
2:00 PM 59 °F 54 °F 80% 29.91 in 6 mi NW 3.5 mph - -   Overcast
2:55 PM 60.8 °F 53.6 °F 77% 29.89 in 6.2 mi NW 3.5 mph - N/A   Partly Cloudy
3:00 PM 60 °F 54 °F 74% 29.91 in 6 mi NW 3.5 mph - -   Overcast
3:55 PM 59.0 °F 55.4 °F 88% 29.89 in 6.2 mi WNW 3.5 mph - N/A   Partly Cloudy
4:00 PM 59 °F 55 °F 83% 29.90 in 6 mi WNW 3.5 mph - -   Overcast
4:55 PM 59.0 °F 55.4 °F 88% 29.89 in 6.2 mi WNW 3.5 mph - N/A   Partly Cloudy
5:00 PM 59 °F 55 °F 83% 29.89 in 6 mi WNW 3.5 mph - -   Overcast
5:55 PM 59.0 °F 55.4 °F 88% 29.86 in 6.2 mi NW 3.5 mph - N/A   Partly Cloudy
6:00 PM 59 °F 55 °F 82% 29.88 in 6 mi NW 3.5 mph - -   Overcast
6:55 PM 59.0 °F 55.4 °F 88% 29.86 in 6.2 mi Calm Calm - N/A   Partly Cloudy
7:00 PM 59 °F 55 °F 83% 29.88 in 6 mi Calm Calm - -   Overcast
7:55 PM 57.2 °F 53.6 °F 88% 29.86 in 6.2 mi NE 2.3 mph - N/A   Partly Cloudy
8:00 PM 58 °F 53 °F 80% 29.87 in 6 mi NE 2.3 mph - -   Overcast
9:55 PM 55.4 °F 53.6 °F 94% 29.86 in 6.2 mi ESE 1.2 mph - N/A   Partly Cloudy
10:00 PM 55 °F 53 °F 92% 29.87 in 6 mi ESE 1.2 mph - -   Overcast
10:55 PM 55.4 °F 53.6 °F 94% 29.86 in - NE 2.3 mph - N/A   Clear
11:00 PM 55 °F 54 °F 94% 29.88 in 6 mi NE 2.3 mph - -   Partly Cloudy
11:55 PM 55.4 °F 53.6 °F 94% 29.86 in - East 2.3 mph - N/A   Clear